Torna al catalogo

GENA-OT-1

AttivoScienzaSSO
NORAD 66774·PAYLOAD·🇩🇪 Germany

Lanciato Nov 28, 2025 da Vandenberg Space Force Base

Loading…

Prossimi Passaggi (prossime 24 ore)

TLE

AggiornatoSource: Space-Track

Epoca: Sep 14, 2026, 03:42 UTC

1 66774U 25276DN  26257.15478526  .00004543  00000-0  20206-3 0  9991
2 66774  97.4132 329.7996 0000383 141.5080 218.6184 15.21993910 43979

Traccia GENA-OT-1 in tempo reale con AllMySat

Download on the App Store